Location: The Saddle
(36.8333°N, 80.3417°W)
Time: 10:08:57
(UTC-05:00)

S-56A Canister/Altair - Pass Details

Date: 18 December 2023
Orbit: 640 x 2488 km, 38.9° (Epoch: 25 February)

Event Time Altitude Azimuth Distance (km) Brightness Sun altitude
Rises 11:20:56 0° 283° (WNW) 3,825 10.9 28.3°
Reaches altitude 10° 11:23:59 10° 284° (WNW) 2,626 10.1 28.4°
Maximum altitude 11:29:54 90° 15° (NNE) 739 8.0 28.7°
Drops below altitude 10° 11:34:29 10° 105° (ESE) 2,056 10.2 28.9°
Sets 11:36:38 0° 105° (ESE) 2,931 10.9 29.0°
